Regional Weather Roundup
Issued by NWS Glasgow, MT

Home | Current Version | Previous Version | Text Only | Print | Product List | Glossary On
Versions: 1 2 3 4 5 6 7 8 9 10 11 12 13 14 15 16 17 18 19 20 21 22 23 24 25 26 27 28
000
ASUS45 KGGW 301515
RWRGGW
HOURLY REGIONAL WEATHER ROUNDUP FOR NORTHEAST MONTANA
NATIONAL WEATHER SERVICE GLASGOW MONTANA
900 AM MDT MON MAY 30 2016

NOTE: "FAIR" INDICATES FEW OR NO CLOUDS BELOW 12,000 FEET WITH NO
SIGNIFICANT WEATHER AND/OR OBSTRUCTIONS TO VISISBILITY.

NORTHEAST MONTANA


CITY           SKY/WX    TMP DP  RH WIND       PRES   REMARKS
GLASGOW        CLOUDY    60  50  69 CALM      29.92S
PLENTYWOOD       N/A     61  42  49 NW2         N/A
WOLF POINT     LGT RAIN  58  51  78 W12       29.93R
JORDAN           N/A     56  49  77 N7        29.94F
WINNETT          N/A     62  47  57 S3          N/A
SIDNEY         RAIN      55  52  89 NW7       29.92F
GLENDIVE       CLOUDY    54  52  94 NE5       29.96F
MALTA            N/A     54  47  77 W8G18       N/A
SCOBEY           N/A     62  41  46 SW12      29.91R
OPHEIM           N/A     54  43  66 W15       29.74R

FORT PECK REPORTS


CITY           SKY/WX    TMP DP  RH WIND       PRES   REMARKS
FORT PECK        N/A     57  53  86 SW9         N/A
THE PINES        N/A     57  49  74 S6          N/A

SOUTHEAST MONTANA


CITY           SKY/WX    TMP DP  RH WIND       PRES   REMARKS
BILLINGS       PTSUNNY   60  49  66 SW10      30.01S
MILES CITY     CLOUDY    59  50  72 NW12      29.96R
BAKER          TSTM      53  50  89 NW15G23   29.95R
LIVINGSTON     CLOUDY    51  44  77 W8        30.06F

CENTRAL MONTANA


CITY           SKY/WX    TMP DP  RH WIND       PRES   REMARKS
HAVRE          CLOUDY    49  46  90 W12       30.02S
LEWISTOWN      CLOUDY    52  42  69 NW13      30.04R
GREAT FALLS    CLOUDY    46  41  82 N18       30.11R
CUT BANK       CLOUDY    40  38  93 NW17      30.10R
HELENA         MOSUNNY   60  34  37 NW21G26   30.07F
BUTTE          CLOUDY    48  35  60 NW9       30.15R
BOZEMAN        CLOUDY    55  44  66 SW3       30.09R

WESTERN MONTANA


CITY           SKY/WX    TMP DP  RH WIND       PRES   REMARKS
MISSOULA       SUNNY     57  40  52 NW7       30.14R
KALISPELL      NOT AVBL

NORTH DAKOTA


CITY           SKY/WX    TMP DP  RH WIND       PRES   REMARKS
WILLISTON      CLOUDY    56  48  74 SW12      29.93R
DICKINSON      CLOUDY    57  50  77 NW13      29.90R
MINOT          MOSUNNY   73  54  51 N5        29.88F
BISMARCK       SUNNY     68  55  63 CALM      29.90F

SOUTHERN SASKATCHEWAN


CITY           SKY/WX    TMP DP  RH WIND       PRES   REMARKS
REGINA         MOSUNNY   61  48  63 NE7       29.88S
MOOSE JAW      PTSUNNY   59  50  72 NW2       29.88F
ESTEVAN        CLOUDY    66  48  52 VRB2      29.89S
SWIFT CURRENT  PTSUNNY   52  46  82 W18       29.89R





USA.gov is the U.S. government's official web portal to all federal, state and local government web resources and services.